Time,TemperatureF,DewpointF,PressureIn,WindDirection,WindDirectionDegrees,WindSpeedMPH,WindSpeedGustMPH,Humidity,HourlyPrecipIn,Conditions,Clouds,dailyrainin,SoftwareType,DateUTC
2013-05-25 00:02:00,38.0,37.0,30.13,North,359,0.0,0.0,95,0.00,,,-99.99,,2013-05-25 04:02:00,
2013-05-25 00:33:00,37.0,36.0,30.14,North,359,0.0,0.0,97,0.00,,,-99.99,,2013-05-25 04:33:00,
2013-05-25 00:43:00,37.0,36.0,30.14,North,359,0.0,0.0,97,0.00,,,-99.99,,2013-05-25 04:43:00,
2013-05-25 00:53:00,37.0,36.0,30.14,North,359,0.0,0.0,97,0.00,,,-99.99,,2013-05-25 04:53:00,
2013-05-25 01:02:00,37.0,36.0,30.14,North,359,0.0,0.0,97,0.00,,,-99.99,,2013-05-25 05:02:00,
2013-05-25 01:12:00,37.0,36.0,30.14,North,359,0.0,0.0,97,0.00,,,-99.99,,2013-05-25 05:12:00,
2013-05-25 01:22:00,37.0,36.0,30.14,North,359,0.0,0.0,97,0.00,,,-99.99,,2013-05-25 05:22:00,
2013-05-25 01:32:00,36.0,35.0,30.14,North,359,0.0,0.0,98,0.00,,,-99.99,,2013-05-25 05:32:00,
2013-05-25 01:43:00,36.0,35.0,30.14,North,359,0.0,0.0,98,0.00,,,-99.99,,2013-05-25 05:43:00,
2013-05-25 01:52:00,36.0,35.0,30.14,North,359,0.0,0.0,98,0.00,,,-99.99,,2013-05-25 05:52:00,
2013-05-25 02:02:00,36.0,35.0,30.13,North,359,0.0,0.0,98,0.00,,,-99.99,,2013-05-25 06:02:00,
2013-05-25 02:12:00,36.0,35.0,30.13,North,359,0.0,0.0,98,0.00,,,-99.99,,2013-05-25 06:12:00,
2013-05-25 02:21:00,36.0,35.0,30.13,North,359,0.0,0.0,98,0.00,,,-99.99,,2013-05-25 06:21:00,
2013-05-25 02:32:00,36.0,35.0,30.14,North,359,0.0,0.0,98,0.00,,,-99.99,,2013-05-25 06:32:00,
2013-05-25 02:42:00,36.0,35.0,30.14,North,359,0.0,0.0,98,0.00,,,-99.99,,2013-05-25 06:42:00,
2013-05-25 02:52:00,36.0,35.0,30.14,North,359,0.0,0.0,98,0.00,,,-99.99,,2013-05-25 06:52:00,
2013-05-25 03:01:00,36.0,35.0,30.14,North,359,0.0,0.0,98,0.00,,,-99.99,,2013-05-25 07:01:00,
2013-05-25 03:11:00,36.0,35.0,30.14,North,359,0.0,0.0,98,0.00,,,-99.99,,2013-05-25 07:11:00,
2013-05-25 03:22:00,36.0,36.0,30.14,North,359,0.0,0.0,99,0.00,,,-99.99,,2013-05-25 07:22:00,
2013-05-25 03:32:00,36.0,35.0,30.14,North,359,0.0,0.0,98,0.00,,,-99.99,,2013-05-25 07:32:00,
2013-05-25 03:42:00,36.0,35.0,30.14,North,359,0.0,0.0,98,0.00,,,-99.99,,2013-05-25 07:42:00,
2013-05-25 03:52:00,36.0,35.0,30.14,North,359,0.0,0.0,98,0.00,,,-99.99,,2013-05-25 07:52:00,
2013-05-25 04:02:00,36.0,35.0,30.14,North,359,0.0,0.0,98,0.00,,,-99.99,,2013-05-25 08:02:00,
2013-05-25 04:11:00,36.0,35.0,30.14,North,359,0.0,0.0,98,0.00,,,-99.99,,2013-05-25 08:11:00,
2013-05-25 04:22:00,36.0,35.0,30.14,North,359,0.0,0.0,98,0.00,,,-99.99,,2013-05-25 08:22:00,
2013-05-25 04:32:00,35.0,34.0,30.14,North,359,0.0,0.0,98,0.00,,,-99.99,,2013-05-25 08:32:00,
2013-05-25 04:42:00,35.0,34.0,30.14,North,359,0.0,0.0,98,0.00,,,-99.99,,2013-05-25 08:42:00,
2013-05-25 04:52:00,35.0,34.0,30.14,North,359,0.0,0.0,98,0.00,,,-99.99,,2013-05-25 08:52:00,
2013-05-25 05:02:00,35.0,34.0,30.14,North,359,0.0,0.0,98,0.00,,,-99.99,,2013-05-25 09:02:00,
2013-05-25 05:11:00,35.0,34.0,30.14,North,359,0.0,0.0,98,0.00,,,-99.99,,2013-05-25 09:11:00,
2013-05-25 05:21:00,35.0,34.0,30.14,North,359,0.0,0.0,98,0.00,,,-99.99,,2013-05-25 09:21:00,
2013-05-25 05:33:00,35.0,34.0,30.14,North,359,0.0,0.0,98,0.00,,,-99.99,,2013-05-25 09:33:00,
2013-05-25 05:43:00,35.0,34.0,30.14,North,359,0.0,0.0,98,0.00,,,-99.99,,2013-05-25 09:43:00,
2013-05-25 05:52:00,35.0,34.0,30.15,North,359,0.0,0.0,98,0.00,,,-99.99,,2013-05-25 09:52:00,
2013-05-25 06:03:00,35.0,34.0,30.14,North,359,0.0,0.0,98,0.00,,,-99.99,,2013-05-25 10:03:00,
2013-05-25 06:12:00,35.0,34.0,30.14,North,359,0.0,0.0,98,0.00,,,-99.99,,2013-05-25 10:12:00,
2013-05-25 06:22:00,35.0,34.0,30.14,North,359,0.0,0.0,98,0.00,,,-99.99,,2013-05-25 10:22:00,
2013-05-25 06:33:00,35.0,34.0,30.14,North,359,0.0,0.0,97,0.00,,,-99.99,,2013-05-25 10:33:00,
2013-05-25 06:42:00,35.0,34.0,30.14,North,359,0.0,0.0,97,0.00,,,-99.99,,2013-05-25 10:42:00,
2013-05-25 06:52:00,35.0,34.0,30.15,North,359,0.0,0.0,97,0.00,,,-99.99,,2013-05-25 10:52:00,
2013-05-25 07:03:00,36.0,35.0,30.16,North,359,0.0,0.0,96,0.00,,,-99.99,,2013-05-25 11:03:00,
2013-05-25 07:12:00,36.0,35.0,30.16,North,359,0.0,0.0,96,0.00,,,-99.99,,2013-05-25 11:12:00,
2013-05-25 07:22:00,36.0,35.0,30.16,North,359,0.0,0.0,95,0.00,,,-99.99,,2013-05-25 11:22:00,
2013-05-25 07:32:00,36.0,35.0,30.16,North,359,0.0,0.0,95,0.00,,,-99.99,,2013-05-25 11:32:00,
2013-05-25 07:42:00,36.0,35.0,30.16,North,359,0.0,0.0,95,0.00,,,-99.99,,2013-05-25 11:42:00,
2013-05-25 07:52:00,38.0,36.0,30.16,North,359,0.0,0.0,94,0.00,,,-99.99,,2013-05-25 11:52:00,
2013-05-25 08:02:00,39.0,37.0,30.16,North,359,0.0,0.0,93,0.00,,,-99.99,,2013-05-25 12:02:00,
2013-05-25 08:12:00,39.0,37.0,30.16,North,359,0.0,0.0,93,0.00,,,-99.99,,2013-05-25 12:12:00,
2013-05-25 08:22:00,40.0,38.0,30.17,North,359,0.0,0.0,92,0.00,,,-99.99,,2013-05-25 12:22:00,
2013-05-25 08:32:00,40.0,38.0,30.17,North,359,0.0,0.0,92,0.00,,,-99.99,,2013-05-25 12:32:00,
2013-05-25 08:42:00,40.0,38.0,30.17,North,359,0.0,0.0,92,0.00,,,-99.99,,2013-05-25 12:42:00,
2013-05-25 08:52:00,42.0,39.0,30.17,North,359,0.0,0.0,89,0.00,,,-99.99,,2013-05-25 12:52:00,
2013-05-25 09:02:00,45.0,41.0,30.19,North,359,0.0,0.0,86,0.00,,,-99.99,,2013-05-25 13:02:00,
2013-05-25 09:11:00,45.0,40.0,30.19,North,359,0.0,0.0,84,0.00,,,-99.99,,2013-05-25 13:11:00,
2013-05-25 09:22:00,45.0,40.0,30.19,North,359,0.0,0.0,84,0.00,,,-99.99,,2013-05-25 13:22:00,
2013-05-25 09:32:00,44.0,40.0,30.19,North,359,0.0,0.0,85,0.00,,,-99.99,,2013-05-25 13:32:00,
2013-05-25 09:42:00,44.0,40.0,30.19,North,359,0.0,0.0,85,0.00,,,-99.99,,2013-05-25 13:42:00,
2013-05-25 09:52:00,46.0,41.0,30.19,North,359,0.0,0.0,83,0.00,,,-99.99,,2013-05-25 13:52:00,
2013-05-25 10:02:00,48.0,42.0,30.19,North,359,0.0,0.0,79,0.00,,,-99.99,,2013-05-25 14:02:00,
2013-05-25 10:11:00,48.0,42.0,30.19,North,359,0.0,0.0,79,0.00,,,-99.99,,2013-05-25 14:11:00,
2013-05-25 10:22:00,48.0,42.0,30.19,North,359,0.0,0.0,79,0.00,,,-99.99,,2013-05-25 14:22:00,
2013-05-25 10:32:00,52.0,43.0,30.21,North,359,0.0,0.0,71,0.00,,,-99.99,,2013-05-25 14:32:00,
2013-05-25 10:42:00,52.0,43.0,30.21,North,359,0.0,0.0,71,0.00,,,-99.99,,2013-05-25 14:42:00,
2013-05-25 10:52:00,53.0,43.0,30.21,North,359,0.0,0.0,69,0.00,,,-99.99,,2013-05-25 14:52:00,
2013-05-25 11:01:00,54.0,43.0,30.22,North,359,0.0,0.0,67,0.00,,,-99.99,,2013-05-25 15:01:00,
2013-05-25 11:11:00,54.0,43.0,30.22,North,359,0.0,0.0,67,0.00,,,-99.99,,2013-05-25 15:11:00,
2013-05-25 11:22:00,55.0,45.0,30.22,North,359,0.0,0.0,68,0.00,,,-99.99,,2013-05-25 15:22:00,
2013-05-25 11:33:00,56.0,44.0,30.22,North,359,0.0,0.0,65,0.00,,,-99.99,,2013-05-25 15:33:00,
2013-05-25 11:43:00,56.0,44.0,30.22,North,359,0.0,0.0,65,0.00,,,-99.99,,2013-05-25 15:43:00,
2013-05-25 11:53:00,56.0,41.0,30.22,North,359,0.0,0.0,57,0.00,,,-99.99,,2013-05-25 15:53:00,
2013-05-25 12:03:00,55.0,41.0,30.22,North,359,0.0,0.0,60,0.00,,,-99.99,,2013-05-25 16:03:00,
2013-05-25 12:12:00,55.0,41.0,30.22,North,359,0.0,0.0,60,0.00,,,-99.99,,2013-05-25 16:12:00,
2013-05-25 12:23:00,57.0,43.0,30.21,North,359,0.0,0.0,60,0.00,,,-99.99,,2013-05-25 16:23:00,
2013-05-25 12:32:00,57.0,43.0,30.21,North,359,0.0,0.0,60,0.00,,,-99.99,,2013-05-25 16:32:00,
2013-05-25 12:42:00,57.0,43.0,30.21,North,359,0.0,0.0,60,0.00,,,-99.99,,2013-05-25 16:42:00,
2013-05-25 12:52:00,57.0,43.0,30.21,North,359,0.0,0.0,60,0.00,,,-99.99,,2013-05-25 16:52:00,
2013-05-25 13:03:00,61.0,46.0,30.22,North,359,0.0,0.0,58,0.00,,,-99.99,,2013-05-25 17:03:00,
2013-05-25 13:11:00,61.0,46.0,30.22,North,359,0.0,0.0,58,0.00,,,-99.99,,2013-05-25 17:11:00,
2013-05-25 13:22:00,61.0,46.0,30.21,North,359,0.0,0.0,57,0.00,,,-99.99,,2013-05-25 17:22:00,
2013-05-25 13:32:00,61.0,45.0,30.22,North,359,0.0,0.0,56,0.00,,,-99.99,,2013-05-25 17:32:00,
2013-05-25 13:42:00,61.0,45.0,30.22,North,359,0.0,0.0,56,0.00,,,-99.99,,2013-05-25 17:42:00,
2013-05-25 13:52:00,61.0,45.0,30.22,North,359,0.0,0.0,56,0.00,,,-99.99,,2013-05-25 17:52:00,
2013-05-25 14:02:00,61.0,45.0,30.22,North,359,0.0,0.0,56,0.00,,,-99.99,,2013-05-25 18:02:00,
2013-05-25 14:11:00,61.0,45.0,30.22,North,359,0.0,0.0,56,0.00,,,-99.99,,2013-05-25 18:11:00,
2013-05-25 14:32:00,63.0,46.0,30.20,North,359,0.0,0.0,53,0.00,,,-99.99,,2013-05-25 18:32:00,
2013-05-25 14:42:00,63.0,46.0,30.20,North,359,0.0,0.0,53,0.00,,,-99.99,,2013-05-25 18:42:00,
2013-05-25 14:52:00,63.0,46.0,30.20,North,359,0.0,0.0,53,0.00,,,-99.99,,2013-05-25 18:52:00,
2013-05-25 15:02:00,63.0,46.0,30.20,North,359,0.0,0.0,53,0.00,,,-99.99,,2013-05-25 19:02:00,
2013-05-25 15:22:00,64.0,44.0,30.19,North,359,0.0,0.0,48,0.00,,,-99.99,,2013-05-25 19:22:00,
2013-05-25 15:32:00,63.0,45.0,30.20,North,359,0.0,0.0,51,0.00,,,-99.99,,2013-05-25 19:32:00,
2013-05-25 15:42:00,63.0,45.0,30.20,North,359,0.0,0.0,51,0.00,,,-99.99,,2013-05-25 19:42:00,
2013-05-25 15:52:00,63.0,46.0,30.19,North,359,0.0,0.0,54,0.00,,,-99.99,,2013-05-25 19:52:00,
2013-05-25 16:02:00,62.0,47.0,30.20,North,359,0.0,0.0,59,0.00,,,-99.99,,2013-05-25 20:02:00,
2013-05-25 16:11:00,62.0,47.0,30.20,North,359,0.0,0.0,59,0.00,,,-99.99,,2013-05-25 20:11:00,
2013-05-25 16:22:00,62.0,47.0,30.20,North,359,0.0,0.0,57,0.00,,,-99.99,,2013-05-25 20:22:00,
2013-05-25 16:32:00,60.0,46.0,30.20,North,359,0.0,0.0,60,0.00,,,-99.99,,2013-05-25 20:32:00,
2013-05-25 16:42:00,60.0,46.0,30.20,North,359,0.0,0.0,60,0.00,,,-99.99,,2013-05-25 20:42:00,
2013-05-25 16:52:00,60.0,47.0,30.20,North,359,0.0,0.0,63,0.00,,,-99.99,,2013-05-25 20:52:00,
2013-05-25 17:02:00,60.0,47.0,30.20,North,359,0.0,0.0,63,0.00,,,-99.99,,2013-05-25 21:02:00,
2013-05-25 17:11:00,60.0,47.0,30.20,North,359,0.0,0.0,63,0.00,,,-99.99,,2013-05-25 21:11:00,
2013-05-25 17:21:00,60.0,47.0,30.20,North,359,0.0,0.0,63,0.00,,,-99.99,,2013-05-25 21:21:00,
2013-05-25 17:33:00,60.0,48.0,30.20,North,359,0.0,0.0,64,0.00,,,-99.99,,2013-05-25 21:33:00,
2013-05-25 17:43:00,60.0,48.0,30.20,North,359,0.0,0.0,64,0.00,,,-99.99,,2013-05-25 21:43:00,
2013-05-25 17:53:00,59.0,47.0,30.19,North,359,0.0,0.0,64,0.00,,,-99.99,,2013-05-25 21:53:00,
2013-05-25 18:03:00,57.0,45.0,30.19,North,359,0.0,0.0,65,0.00,,,-99.99,,2013-05-25 22:03:00,
2013-05-25 18:13:00,57.0,45.0,30.19,North,359,0.0,0.0,65,0.00,,,-99.99,,2013-05-25 22:13:00,
2013-05-25 18:23:00,57.0,45.0,30.19,North,359,0.0,0.0,65,0.00,,,-99.99,,2013-05-25 22:23:00,
2013-05-25 18:32:00,56.0,45.0,30.18,North,359,0.0,0.0,66,0.00,,,-99.99,,2013-05-25 22:32:00,
2013-05-25 18:42:00,56.0,45.0,30.18,North,359,0.0,0.0,66,0.00,,,-99.99,,2013-05-25 22:42:00,
2013-05-25 18:52:00,55.0,44.0,30.18,North,359,0.0,0.0,67,0.00,,,-99.99,,2013-05-25 22:52:00,
2013-05-25 19:02:00,55.0,44.0,30.18,North,359,0.0,0.0,67,0.00,,,-99.99,,2013-05-25 23:02:00,
2013-05-25 19:12:00,55.0,44.0,30.18,North,359,0.0,0.0,67,0.00,,,-99.99,,2013-05-25 23:12:00,
2013-05-25 19:22:00,53.0,43.0,30.18,North,359,0.0,0.0,69,0.00,,,-99.99,,2013-05-25 23:22:00,
2013-05-25 19:32:00,52.0,44.0,30.17,North,359,0.0,0.0,75,0.00,,,-99.99,,2013-05-25 23:32:00,
2013-05-25 19:42:00,52.0,45.0,30.17,North,359,0.0,0.0,77,0.00,,,-99.99,,2013-05-25 23:42:00,
2013-05-25 19:52:00,52.0,45.0,30.17,North,359,0.0,0.0,77,0.00,,,-99.99,,2013-05-25 23:52:00,
2013-05-25 20:02:00,52.0,45.0,30.17,North,359,0.0,0.0,77,0.00,,,-99.99,,2013-05-26 00:02:00,
2013-05-25 20:11:00,52.0,45.0,30.17,North,359,0.0,0.0,77,0.00,,,-99.99,,2013-05-26 00:11:00,
2013-05-25 20:22:00,50.0,44.0,30.18,North,359,0.0,0.0,81,0.00,,,-99.99,,2013-05-26 00:22:00,
2013-05-25 20:32:00,49.0,44.0,30.17,North,359,0.0,0.0,84,0.00,,,-99.99,,2013-05-26 00:32:00,
2013-05-25 20:42:00,49.0,44.0,30.17,North,359,0.0,0.0,84,0.00,,,-99.99,,2013-05-26 00:42:00,
2013-05-25 20:52:00,49.0,44.0,30.18,North,359,0.0,0.0,84,0.00,,,-99.99,,2013-05-26 00:52:00,
2013-05-25 21:01:00,48.0,44.0,30.17,North,359,0.0,0.0,85,0.00,,,-99.99,,2013-05-26 01:01:00,
2013-05-25 21:11:00,48.0,44.0,30.17,North,359,0.0,0.0,85,0.00,,,-99.99,,2013-05-26 01:11:00,
2013-05-25 21:21:00,47.0,43.0,30.17,North,359,0.0,0.0,87,0.00,,,-99.99,,2013-05-26 01:21:00,
2013-05-25 21:32:00,47.0,44.0,30.16,North,359,0.0,0.0,88,0.00,,,-99.99,,2013-05-26 01:32:00,
2013-05-25 21:42:00,47.0,44.0,30.16,North,359,0.0,0.0,88,0.00,,,-99.99,,2013-05-26 01:42:00,
2013-05-25 21:52:00,46.0,43.0,30.16,North,359,0.0,0.0,90,0.00,,,-99.99,,2013-05-26 01:52:00,
2013-05-25 22:02:00,45.0,42.0,30.16,North,359,0.0,0.0,90,0.00,,,-99.99,,2013-05-26 02:02:00,
2013-05-25 22:11:00,45.0,42.0,30.16,North,359,0.0,0.0,90,0.00,,,-99.99,,2013-05-26 02:11:00,
2013-05-25 22:21:00,44.0,42.0,30.17,North,359,0.0,0.0,91,0.00,,,-99.99,,2013-05-26 02:21:00,
2013-05-25 22:32:00,44.0,42.0,30.16,North,359,0.0,0.0,93,0.00,,,-99.99,,2013-05-26 02:32:00,
2013-05-25 22:42:00,44.0,42.0,30.16,North,359,0.0,0.0,93,0.00,,,-99.99,,2013-05-26 02:42:00,
2013-05-25 22:52:00,44.0,42.0,30.16,North,359,0.0,0.0,93,0.00,,,-99.99,,2013-05-26 02:52:00,
2013-05-25 23:01:00,43.0,41.0,30.16,North,359,0.0,0.0,91,0.00,,,-99.99,,2013-05-26 03:01:00,
2013-05-25 23:11:00,43.0,41.0,30.16,North,359,0.0,0.0,91,0.00,,,-99.99,,2013-05-26 03:11:00,
2013-05-25 23:22:00,43.0,40.0,30.17,North,359,0.0,0.0,89,0.00,,,-99.99,,2013-05-26 03:22:00,
2013-05-25 23:33:00,43.0,40.0,30.17,North,359,0.0,0.0,89,0.00,,,-99.99,,2013-05-26 03:33:00,
2013-05-25 23:43:00,43.0,40.0,30.17,North,359,0.0,0.0,89,0.00,,,-99.99,,2013-05-26 03:43:00,
2013-05-25 23:53:00,43.0,40.0,30.17,North,359,0.0,0.0,89,0.00,,,-99.99,,2013-05-26 03:53:00,